Home   Weather   45°30'N, 11°29'E   Past weeks
Flag for Italy

Past Weather in 45°30'N, 11°29'E, Italy — Yesterday and Last 2 Weeks

Now
75 °F

Mild.


Feels Like: 75 °F
Forecast: 90 / 73 °F
Wind: 3 mph from Northeast

Location: Treviso / S. Angelo

Current Time: Jul 21, 2019 at 2:31:38 am

Latest Report: Jul 21, 2019 at 1:50 am


Visibility: N/A

Pressure: 30.07 "Hg

Humidity: 89%

Dew Point: 72 °F

Location of 45°30'N, 11°29'ELocation

Past Weather in 45°30'N, 11°29'E — Graph

°F

45°30'N, 11°29'E Temperature Yesterday

Maximum temperature yesterday: 86 °F (at 12:50 pm)
Minimum temperature yesterday: 68 °F (at 5:20 am)
Average temperature yesterday: 78 °F

High & Low Weather Summary for the Past Weeks

 TemperatureHumidityPressure
High90 °F (Jul 6, 2:50 pm)100% (Jul 7, 11:20 pm)30.09 "Hg (Jul 7, 11:20 pm)
Low57 °F (Jul 14, 4:50 am)33% (Jul 16, 6:20 pm)29.68 "Hg (Jul 7, 4:20 pm)
Average74 °F68%29.89 "Hg
* Reported Jul 6 1:20 am — Jul 21 1:20 am, 45°30'N, 11°29'E. Weather by CustomWeather, © 2019

Note: Actual official high and low records may vary slightly from our data, if they occured in-between our weather recording intervals... More about our weather records

Advertising

45°30'N, 11°29'E Weather History for the Previous 24 Hours

Scroll right to see more
 ConditionsComfort  
Time TempWeatherWind HumidityBarometerVisibility
1:20 am
Sun, Jul 21
75 °FMild.3 mph89%30.09 "HgN/A
12:50 am75 °FMild.3 mph89%30.09 "HgN/A
12:20 am77 °FWarm.5 mph83%30.07 "HgN/A
11:50 pm
Sat, Jul 20
77 °FWarm.3 mph83%30.07 "HgN/A
11:20 pm77 °FWarm.5 mph83%30.07 "HgN/A
10:50 pm77 °FClear.6 mph89%30.04 "Hg10 mi
10:20 pm79 °FClear.2 mph79%30.07 "Hg10 mi
9:50 pm79 °FPassing clouds.5 mph79%30.04 "HgN/A
9:20 pm79 °FPassing clouds.5 mph79%30.04 "HgN/A
8:50 pm79 °FPassing clouds.5 mph74%30.01 "HgN/A
8:20 pm81 °FPassing clouds.8 mph66%30.01 "HgN/A
7:50 pm82 °FPassing clouds.7 mph62%30.01 "HgN/A
7:20 pm82 °FSunny.8 mph58%30.01 "Hg10 mi
6:50 pm84 °FSunny.8 mph51%30.01 "Hg10 mi
6:20 pm84 °FSunny.9 mph55%30.01 "Hg10 mi
5:50 pm84 °FSunny.9 mph55%30.01 "Hg10 mi
5:20 pm86 °FPassing clouds.10 mph52%30.01 "HgN/A
4:50 pm86 °FPassing clouds.8 mph52%30.04 "HgN/A
4:20 pm86 °FPassing clouds.7 mph52%30.04 "HgN/A
3:20 pm86 °FPassing clouds.8 mph49%30.04 "HgN/A
2:50 pm86 °FPassing clouds.6 mph52%30.04 "HgN/A
1:50 pm86 °FScattered clouds.5 mph52%30.04 "HgN/A
1:20 pm86 °FPassing clouds.5 mph55%30.04 "HgN/A
12:50 pm86 °FPassing clouds.3 mph55%30.04 "HgN/A
12:20 pm84 °FPassing clouds.3 mph58%30.07 "HgN/A
11:50 am82 °FSunny.3 mph62%30.07 "Hg10 mi
11:20 am82 °FSunny.2 mph58%30.07 "Hg10 mi
10:50 am81 °FPassing clouds.3 mph58%30.07 "HgN/A
10:20 am81 °FSunny.2 mph62%30.07 "Hg10 mi
9:50 am79 °FPassing clouds.3 mph70%30.04 "HgN/A
9:20 am77 °FSunny.2 mph69%30.07 "Hg10 mi
8:50 am75 °FPassing clouds.3 mph74%30.07 "HgN/A
8:20 am73 °FPassing clouds.3 mph78%30.04 "HgN/A
7:50 am73 °FPassing clouds.3 mph78%30.04 "HgN/A
7:20 am72 °FSunny.2 mph78%30.04 "Hg10 mi
6:50 am70 °FMild.3 mph83%30.04 "HgN/A
6:20 am70 °FMild.5 mph83%30.04 "HgN/A
5:50 am68 °FMild.6 mph94%30.01 "HgN/A
5:20 am68 °FLight rain. Overcast.5 mph94%30.01 "HgN/A
4:50 am70 °FMild.5 mph88%30.04 "HgN/A
4:20 am72 °FMild.3 mph83%30.01 "HgN/A
3:50 am70 °FPassing clouds.2 mph88%30.01 "HgN/A
3:20 am70 °FPassing clouds.1 mph88%30.01 "HgN/A
2:50 am72 °FPassing clouds.3 mph83%30.01 "HgN/A
2:20 am70 °FPassing clouds.2 mph88%30.01 "HgN/A
Weather by CustomWeather, © 2019

See weather overview